Погода в Туркестане

Погода в Туркестане : погода сейчас, прогноз погоды и архив. Всё, что Вы хотите узнать о погоде в Туркестане!

Хотите узнать прогноз погоды в Туркестане? Тогда Вам сюда: Погода в Туркестане

Поиск расширенной информации на нашем сайте:

Другие новости

Новости СМИ2

Главная страница сайта

Новости сайта

03.07.2017

Напоминаем, что на нашем специализированном сайте Метеоцентр.Азия вы можете получить высокодетализированные автоматические прогнозы погоды по пунктам России, СНГ и мира в авиационном формате (включающие направление и скорость ветра, видимость, явления погоды, количество и форму облачности, нижнюю и верхнюю границу облачности).


Погода в Туркестане - сегодня

Время (UTC), дата Ветер
(°,м/с) 
Видим.   Явления Облачность Т
(°С)
Тd
(°С)
f(%) Тe
(°С)
Pmin
(гПа)
dP
(гПа)
Po
(мм)
O2
(г/м3)
Тmin Tmax R s Состояние
почвы
18 13.08.18 050 (СВ) н/о    ясно 
+26.4 -2.7 15 +26  1008.1  739  272    +34       
21 13.08.18 080 (В) н/о    ясно 
+25.2 +3.4 24 +25  1007.5  -0.6  738  272           
00 14.08.18 060 (СВ) 20000 м    ясно 
+24 +2.5 25 +24  1007.4  -0.2  738  273           
06 14.08.18 010 (С) 20000 м    ясно 
+33.7 +4.7 16 +34  1006.7  -0.5  738  264  +23.6         
09 14.08.18 050 (СВ) 20000 м    ясно 
+36.4 +5.1 14 +36  1005.1  -1.4  737  261           
12 14.08.18 110 (В) 20000 м    ясно 
+36.8 +3.3 12 +37  1004.5  -0.6  737  261           
15 14.08.18 050 (СВ) 20000 м    1/0 верхняя 
[Ci sp]
+31.8 +4.8 18 +32  1005.1  0.2  737  265    +37.2       
18 14.08.18 350 (С) н/о    ясно 
+23.3 +7.1 35 +23  1006.2  0.5  737  272    +37.2       
21 14.08.18 040 (СВ) н/о    ясно 
+26 +3 23 +26  1005.3  -0.7  737  271           
00 15.08.18 тихо ()   20000 м    ясно 
+20.7 +5.8 38 +21  1006  0.3  737  275           
06 15.08.18 240 (ЮЗ) 20000 м    1/0 верхняя 
[Ci sp]
+34.8 +4.3 15 +35  1005.8  737  263  +19.1         
09 15.08.18 280 (З) 20000 м    1/0 верхняя 
[Ci sp]
+37.4 +3.7 12 +37  1004.9  -0.8  737  261           
12 15.08.18 310 (СЗ) 20000 м    ясно 
+37.4 -1.7 8 +37  1004.3  -0.5  737  261           
15 15.08.18 280 (З) 20000 м    ясно 
+31.8 +4.8 18 +32  1005.3  0.5  737  265    +38.6       
18 15.08.18 320 (СЗ) н/о    ясно 
+24 +6.5 32 +24  1005.9  737  272    +38.6       
21 15.08.18 320 (СЗ) н/о    ясно 
+22.7 +3.8 29 +23  1006.3  0.3  737  274           
00 16.08.18 330 (СЗ) 20000 м    ясно 
+20.2 +4.7 36 +20  1007.2  0.7  738  276           
06 16.08.18 330 (СЗ) 20000 м    ясно 
+35.7 +2.2 12 +36  1007.7  0.2  739  263  +19.9         
09 16.08.18 310 (СЗ) 20000 м    1/1 1000 м 
[Cu hum]
+36.9 +2.7 12 +37  1007.7  0.1  739  262           
15 16.08.18 340 (С) 20000 м    ясно 
+29.4 +4.6 21 +29  1008.3  0.3  739  268    +37.1       
21 16.08.18 350 (С) н/о    ясно 
+20.5 +2.1 29 +21  1009.7  -0.4  740  277           
09 17.08.18 340 (С) 20000 м    1/0 верхняя 
[Ci sp]
+33 +1.5 14 +33  1007.3  -1.6  738  265           
15 17.08.18 120 (ЮВ) 20000 м    ясно 
+27.3 +5.4 25 +27  1005.7  -0.1  737  269    +34.7       
21 17.08.18 050 (СВ) н/о    ясно 
+24.6 +5.9 30 +25  1004.3  -1.2  736  271           
09 18.08.18 040 (СВ) 20000 м    1/0 верхняя 
[Ci sp]
+35 +0.4 11 +35  1001.8  -1.2  735  262           
Время (UTC), дата Ветер
(°,м/с) 
Видим.   Явления Облачность Т
(°С)
Тd
(°С)
f(%) Тe
(°С)
Pmin
(гПа)
dP
(гПа)
Po
(мм)
O2
(г/м3)
Тmin Tmax R s Состояние
почвы

Для получения пояснительной информации подведите курсор к названию столбца.

ПОГОДА в Туркестане - архив

Всё, что Вы хотите узнать о погоде в Туркестане - удобно и подробно!

Выберите нужную дату (начиная с 1 января 2015* года) и нажмите кнопку "Найти".
Будут отображены архивные сводки погоды по пункту Туркестан, начиная с указанной даты.


Отображать данные в формате CSV (для использования в таблицах Excel)


Внимание! Наш архив погоды предназначен исключительно для личного некоммерческого использования в познавательных целях. Если Вам необходимы официальные справки о состоянии погоды (для производственных, юридических, коммерческих и т.п. целей), обращайтесь в органы Росгидромета.

*Примечание: данная дата относится к архиву по метеостанциям СССР (Россия, СНГ, Балтия).
Архив по метеостанциям Зарубежной Европы и Азии (кроме Китая) хранится 10 дней, по другим регионам земного шара (Китай, Африка, Америка, Австралия, Океания) - 1 день.

Туркестан - район местоположения метеостанции


Название, широта, долгота, высота метеостанции:
Туркестан 43.3°ш. 68.2°д. 207 м над ур. моря [Казахстан]

Дополнительная информация

В oтличие oт бoльшинства пoгoдных сайтoв мы публикуем пoдрoбную метеoинфoрмацию в детальнoм прoфессиoнальнoм фoрмате.

Характеристики температуры и влажнoсти вoздуха измеряются на высoте 2 м в тени вдали oт зданий и деревьев.
Скoрoсть ветра измеряется на высoте 10 м (на урoвне рoста челoвека скoрoсть ветра ниже в 1.5-2 раза). Если метеoстанция нахoдится в гoрoде или в лесу, тo скoрoсть ветра занижена на 2-4 м/с пo сравнению с oткрытым местoм. Скoрoсть ветра над акватoриями крупных рек и oзёр, а также на вершинах хoлмoв на 2-5 м/с выше, чем в oбычных услoвиях.
Атмoсфернoе давление в разных тoчках местнoсти мoжет значительнo oтличаться oт давления на метеoстанции, в зависимoсти oт услoвий рельефа (при пoдъёме на 10 м давление пoнижается примернo на 1 мм рт.ст.).